This is the latest recevied weather packets stored in our database for station/object HG8GL-6. If no packets are shown the sender has not sent any weather packets the latest 10 day(s).
| Time | Temp. | Humidity | Pressure | Rain* | Wind** | Luminosity | Snow |
|---|---|---|---|---|---|---|---|
| 1778239794 | 22.22° C | 52% | 1016 hPa | 0 mm | - | - | - |
| 1778239164 | 22.22° C | 54% | 1016 hPa | 0 mm | - | - | - |
| 1778238534 | 22.78° C | 59% | 1016 hPa | 0 mm | - | - | - |
| 1778237904 | 22.22° C | 64% | 1016 hPa | 0 mm | - | - | - |
| 1778237304 | 21.67° C | 67% | 1016 hPa | 0 mm | - | - | - |
| 1778236674 | 21.11° C | 68% | 1017 hPa | 0 mm | - | - | - |
| 1778236074 | 20.56° C | 70% | 1017 hPa | 0 mm | - | - | - |
| 1778235444 | 20° C | 71% | 1017 hPa | 0 mm | - | - | - |
| 1778234844 | 20° C | 73% | 1017 hPa | 0 mm | - | - | - |
| 1778234244 | 19.44° C | 72% | 1017 hPa | 0 mm | - | - | - |
| 1778233614 | 20° C | 72% | 1017 hPa | 0 mm | - | - | - |
| 1778232984 | 20° C | 71% | 1017 hPa | 0 mm | - | - | - |
| 1778232354 | 20.56° C | 71% | 1017 hPa | 0 mm | - | - | - |
| 1778231754 | 20.56° C | 73% | 1017 hPa | 0 mm | - | - | - |
| 1778231124 | 21.11° C | 73% | 1017 hPa | 0 mm | - | - | - |
| 1778230494 | 20.56° C | 76% | 1017 hPa | 0 mm | - | - | - |
| 1778229864 | 20° C | 76% | 1017 hPa | 0 mm | - | - | - |
| 1778229264 | 20.56° C | 81% | 1017 hPa | 0 mm | - | - | - |
| 1778228634 | 20° C | 85% | 1017 hPa | 0 mm | - | - | - |
| 1778227974 | 19.44° C | 87% | 1017 hPa | 0 mm | - | - | - |
| 1778227373 | 19.44° C | 90% | 1017 hPa | 0 mm | - | - | - |
| 1778226743 | 18.89° C | 92% | 1017 hPa | 0 mm | - | - | - |
| 1778226114 | 18.33° C | 93% | 1017 hPa | 0 mm | - | - | - |
| 1778225513 | 17.78° C | 94% | 1017 hPa | 0 mm | - | - | - |
| 1778224883 | 17.22° C | 95% | 1017 hPa | 0 mm | - | - | - |
* Rain latest hour (hover to see other rain measurements)
** Current wind speed in m/s (hover to see current wind gust speed)